{"data":{"norad_id":52562,"epoch":"2026-05-24T06:53:38.175360Z","epoch_age_seconds":139940,"freshness":"FRESH","line1":"1 52562U 22051AF  26144.28724740  .00000259  00000+0  34372-4 0  9999","line2":"2 52562  53.2160 139.7506 0001247  77.3290 282.7841 15.08836333222998","mean_motion":15.08836333,"eccentricity":0.0001247,"inclination_deg":53.216,"raan_deg":139.7506,"arg_perigee_deg":77.329,"mean_anomaly_deg":282.7841,"bstar":3.4372e-5,"rev_number":22299,"period_min":95.437786624403,"perigee_km":538.89193645659,"apogee_km":540.61725862101,"semimajor_km":6917.8915975388,"source":"CELESTRAK","updated_at":"2026-05-25T13:38:17.166801Z"}}